User: anonymous   Login
Location: Kikino
(54.4440°N, 112.0940°W)
Time: 04:33:26
(UTC+00:00)
Language:

Transit 2A Rocket - Orbit

View from above orbital plane
View from above orbital plane
View from above satellite
View from above satellite

Ground track
Ground track

The orbit data is extracted from the following two-line orbital elements,

1    47U 60007C   24144.80261661  .00000675  00000-0  16972-3 0  9995
2    47  66.6652 271.8177 0227527 330.1181  28.7089 14.43559410342288
Epoch (UTC): 23 May 2024 19:15:46
Eccentricity: 0.0227527
inclination: 66.6652°
perigee height: 584 km
apogee height: 909 km
right ascension of ascending node: 271.8177°
argument of perigee: 330.1181°
revolutions per day: 14.43559410
mean anomaly at epoch: 28.7089°
orbit number at epoch: 34228

The dashed part of the orbit path shows where the satellite is in the earth's shadow,  

DLR